[[{"header":{"parameterUnit":"m.s-1","parameterCategory":1,"la1":30.2991,"la2":30.254,"lo1":-89.0895,"lo2":-89.0444,"dy":0.0017,"dx":0.0017,"nx":28,"ny":28,"refTime":"2023-06-21T21:00:00:Z","depth":0,"parameterNumber":2,"parameterNumberName":"U-component_of_WINDS"},"data":[0,0,0,0,0,0,0,0,0,0,0,0,0,0,0,0,0,0,0,0,0,0,0,0,0,0,0,0,0,0,0,0,0,0,0,0,0,0,0,0,0,0,0,0,0,0,0,0,0,0,0,0,0,0,0,0,0,0,1.7484,1.7485,0,1.7632,1.7633,1.7635,1.768,1.7679,1.7678,1.7677,1.783,1.7835,1.784,0,0,0,0,0,0,0,0,0,0,0,0,0,1.7239,1.7243,1.7483,1.7485,1.7487,1.7631,1.7633,1.7635,1.768,1.7679,1.7678,1.7677,1.7829,1.7834,1.784,0,0,0,0,0,0,0,0,0,0,0,0,0,1.7362,1.7245,1.7483,1.7527,1.7532,1.7631,1.7634,1.7636,1.768,1.7679,1.7678,1.7677,1.7827,1.7834,1.7841,1.7907,0,0,1.7863,1.7866,0,0,0,0,0,0,0,0,1.7355,1.7371,1.7518,1.7524,1.753,1.7636,1.7603,1.7727,1.768,1.7624,1.7677,1.7676,1.7767,1.7779,1.7809,1.7915,1.7921,1.7863,1.7868,1.7871,1.7873,0,0,0,0,0,0,0,1.7346,1.7365,1.7542,1.752,1.7528,1.7539,1.7555,1.7627,1.77,1.7629,1.7632,1.7649,1.777,1.7802,1.7813,1.7923,1.7863,1.7869,1.7874,1.7877,1.809,1.8091,0,0,0,0,0,0,1.733,1.7357,1.7537,1.7547,1.7438,1.7544,1.7562,1.7603,1.7699,1.7713,1.765,1.7651,1.779,1.7804,1.7818,1.7902,1.7871,1.7877,1.7881,1.8089,1.809,1.8092,0,0,0,0,0,0,1.7325,1.7346,1.7531,1.7453,1.7477,1.7549,1.7595,1.7607,1.7639,1.7715,1.7728,1.767,1.779,1.7808,1.7885,1.7908,1.7881,1.7887,1.8087,1.8089,1.8091,1.8069,0,0,0,0,0,0,1.7318,1.7344,1.737,1.7453,1.7481,1.7595,1.7597,1.761,1.7651,1.7653,1.7737,1.775,1.779,1.7874,1.7892,1.7917,1.7893,1.8085,1.8088,1.809,1.8068,1.8071,1.8072,0,0,0,0,0,1.7309,1.7359,1.7371,1.7392,1.7516,1.7596,1.7613,1.7658,1.7653,1.768,1.7728,1.7747,1.7902,1.7881,1.7902,1.793,1.8084,1.8087,1.809,1.8068,1.807,1.8072,0,0,0,0,0,0,1.7277,1.737,1.7385,1.7463,1.7521,1.7604,1.7639,1.7659,1.7721,1.772,1.7774,1.7793,1.7865,1.7905,1.788,1.7999,1.7994,1.8001,1.7969,1.7973,1.7974,1.7963,1.7899,0,0,0,0,0,1.7279,1.7336,1.7415,1.7476,1.7505,1.7566,1.7603,1.7633,1.7696,1.7721,1.7775,1.7835,1.7897,1.7937,1.7999,1.8075,1.8093,1.8104,1.8106,1.8107,1.8113,1.8154,1.816,1.8102,1.8102,1.8102,0,0,1.7283,1.7342,1.7375,1.7471,1.752,1.7578,1.7587,1.7649,1.7692,1.773,1.7805,1.7847,1.7918,1.7993,1.803,1.8029,1.8133,1.8111,1.8111,1.8116,1.8158,1.8163,1.8168,1.8104,1.8104,1.8103,0,0,1.7322,1.7372,1.7428,1.7476,1.7549,1.759,1.7603,1.7682,1.7711,1.7787,1.7816,1.7869,1.7975,1.8024,1.8063,1.8118,1.8137,1.8136,1.8146,1.8186,1.8191,1.8195,1.8214,1.822,1.8142,1.8142,1.8142,0,1.7318,1.7407,1.7454,1.7514,1.7555,1.7591,1.7648,1.7692,1.7782,1.7809,1.7808,1.7941,1.7991,1.8078,1.8091,1.8122,1.8138,1.8127,1.8186,1.8191,1.8196,1.8214,1.8221,1.8141,1.8141,1.8141,1.8141,0,1.7399,1.746,1.7497,1.7581,1.7626,1.7684,1.774,1.778,1.7805,1.7846,1.7922,1.7983,1.8057,1.808,1.8106,1.8171,1.8168,1.8176,1.8172,1.82,1.8218,1.8226,1.814,1.814,1.8141,1.8141,0,0,1.7422,1.7531,1.7543,1.7581,1.7664,1.7712,1.7771,1.7843,1.7876,1.7936,1.7987,1.8075,1.8082,1.8126,1.8157,1.8193,1.8231,1.8196,1.8198,1.8199,1.8304,1.8297,1.8305,1.8244,1.8246,1.8247,1.8298,0,1.747,1.7577,1.762,1.7707,1.7763,1.7797,1.7849,1.7905,1.7944,1.7998,1.8041,1.8103,1.8108,1.8134,1.8171,1.8218,1.8252,1.8215,1.8291,1.8293,1.8272,1.8315,1.8308,1.8353,1.8306,1.8307,1.8308,0,1.7541,1.76,1.7692,1.7766,1.7792,1.7837,1.7905,1.7956,1.802,1.8046,1.8094,1.8124,1.8187,1.8179,1.8266,1.8239,1.8273,1.8301,1.8304,1.8312,1.8302,1.8323,1.8369,1.8375,1.832,1.8319,1.8318,0,1.7547,1.765,1.7718,1.775,1.7839,1.787,1.7908,1.7971,1.8011,1.8071,1.8097,1.8163,1.82,1.825,1.8297,1.8287,1.8379,1.8375,1.8402,1.8401,1.842,1.8418,1.847,1.8442,1.8442,1.8442,1.8442,0,1.7596,1.765,1.7722,1.7764,1.7825,1.7874,1.7934,1.7975,1.803,1.808,1.8115,1.8161,1.8219,1.8273,1.831,1.8376,1.8392,1.8415,1.8424,1.8411,1.8408,1.8434,1.8431,1.8444,1.8443,1.8443,1.8443,0,1.7613,1.7663,1.774,1.7817,1.7837,1.7879,1.7946,1.7987,1.8027,1.809,1.8108,1.8171,1.8236,1.8287,1.8372,1.8397,1.8466,1.8476,1.8444,1.8448,1.8472,1.8468,1.8542,1.8554,1.8518,1.8518,1.8519,0,1.7641,1.7683,1.7765,1.78,1.7838,1.7895,1.7936,1.7985,1.8026,1.8101,1.8133,1.82,1.8256,1.8358,1.8412,1.8476,1.8488,1.851,1.8498,1.8484,1.8488,1.8484,1.8488,1.8511,1.8511,1.8511,1.8511,0,1.7684,1.7707,1.7763,1.7828,1.7875,1.7929,1.7984,1.8011,1.807,1.8114,1.818,1.8224,1.8309,1.8375,1.8445,1.8485,1.8508,1.8514,1.8524,1.8511,1.849,1.8501,1.8446,1.8512,1.8512,1.8512,1.8512,1.8512,1.7707,1.7746,1.7809,1.7871,1.7917,1.7966,1.8009,1.8054,1.811,1.8183,1.8209,1.8276,1.8338,1.8434,1.8474,1.8528,1.8529,1.8543,1.8547,1.8549,1.8547,1.8482,1.8541,1.8541,1.8541,1.8541,1.8541,0,1.7752,1.7793,1.785,1.7924,1.7972,1.7989,1.805,1.8089,1.8148,1.8203,1.8258,1.8333,1.8396,1.8454,1.8521,1.8552,1.8564,1.8568,1.8566,1.8574,1.8543,1.8527,1.8557,1.8557,1.8557,1.8557,1.8557,1.8557,1.778,1.7846,1.7876,1.7965,1.8006,1.8072,1.8105,1.8151,1.8196,1.8278,1.8331,1.8368,1.8424,1.8495,1.8553,1.8569,1.8591,1.8592,1.861,1.8579,1.8577,1.8575,1.8561,1.8597,1.8597,1.8637,1.8638,1.8638]},{"header":{"parameterUnit":"m.s-1","parameterCategory":1,"la1":30.2991,"la2":30.254,"lo1":-89.0895,"lo2":-89.0444,"dy":0.0017,"dx":0.0017,"nx":28,"ny":28,"refTime":"2023-06-21T21:00:00:Z","depth":0,"parameterNumber":3,"parameterNumberName":"V-component_of_WINDS"},"data":[0,0,0,0,0,0,0,0,0,0,0,0,0,0,0,0,0,0,0,0,0,0,0,0,0,0,0,0,0,0,0,0,0,0,0,0,0,0,0,0,0,0,0,0,0,0,0,0,0,0,0,0,0,0,0,0,0,0,-0.9232,-0.9232,0,-0.9207,-0.9207,-0.9207,-0.9206,-0.9206,-0.9206,-0.9207,-0.9177,-0.9176,-0.9175,0,0,0,0,0,0,0,0,0,0,0,0,0,-0.9275,-0.9274,-0.9232,-0.9232,-0.9231,-0.9207,-0.9207,-0.9207,-0.9206,-0.9206,-0.9206,-0.9207,-0.9178,-0.9176,-0.9175,0,0,0,0,0,0,0,0,0,0,0,0,0,-0.9254,-0.9274,-0.9232,-0.9228,-0.9228,-0.9207,-0.9207,-0.9207,-0.9206,-0.9206,-0.9207,-0.9207,-0.9178,-0.9176,-0.9175,-0.9156,0,0,-0.917,-0.9169,0,0,0,0,0,0,0,0,-0.9255,-0.9252,-0.9229,-0.9228,-0.9228,-0.921,-0.9211,-0.9189,-0.9206,-0.9214,-0.9207,-0.9207,-0.9188,-0.9185,-0.9179,-0.9154,-0.9153,-0.917,-0.9169,-0.9168,-0.9168,0,0,0,0,0,0,0,-0.9256,-0.9253,-0.9222,-0.9229,-0.9228,-0.9226,-0.9224,-0.9207,-0.9198,-0.9213,-0.9213,-0.921,-0.9187,-0.9181,-0.9179,-0.9153,-0.917,-0.9168,-0.9167,-0.9167,-0.911,-0.9109,0,0,0,0,0,0,-0.9259,-0.9254,-0.9223,-0.9221,-0.9243,-0.9225,-0.9223,-0.9215,-0.9199,-0.9196,-0.921,-0.921,-0.9184,-0.9181,-0.9178,-0.9153,-0.9168,-0.9167,-0.9166,-0.911,-0.911,-0.9109,0,0,0,0,0,0,-0.926,-0.9256,-0.9224,-0.9238,-0.9234,-0.9224,-0.9216,-0.9215,-0.9208,-0.9196,-0.9194,-0.9205,-0.9184,-0.918,-0.9161,-0.9152,-0.9166,-0.9165,-0.9111,-0.911,-0.9109,-0.9105,0,0,0,0,0,0,-0.9261,-0.9257,-0.925,-0.9238,-0.9233,-0.9209,-0.9215,-0.9214,-0.9206,-0.9206,-0.9191,-0.9189,-0.9184,-0.9164,-0.916,-0.9151,-0.9163,-0.9112,-0.9111,-0.911,-0.9106,-0.9105,-0.9103,0,0,0,0,0,-0.9263,-0.9249,-0.925,-0.9246,-0.9225,-0.9209,-0.9206,-0.9201,-0.9205,-0.9198,-0.919,-0.919,-0.9154,-0.9162,-0.9157,-0.9147,-0.9112,-0.9111,-0.911,-0.9107,-0.9105,-0.9103,0,0,0,0,0,0,-0.926,-0.9248,-0.9248,-0.923,-0.9221,-0.9209,-0.9199,-0.9199,-0.9187,-0.9187,-0.9181,-0.9177,-0.9159,-0.9151,-0.916,-0.9128,-0.9134,-0.9131,-0.9133,-0.9131,-0.9129,-0.9131,-0.9162,0,0,0,0,0,-0.9257,-0.9246,-0.9236,-0.9221,-0.9217,-0.9209,-0.9202,-0.9199,-0.9188,-0.9183,-0.9174,-0.9162,-0.9149,-0.914,-0.9126,-0.9106,-0.9102,-0.9096,-0.9095,-0.9094,-0.9091,-0.9079,-0.9076,-0.9105,-0.9105,-0.9105,0,0,-0.9251,-0.9243,-0.9237,-0.922,-0.9213,-0.92,-0.9205,-0.9192,-0.9182,-0.9181,-0.9163,-0.9156,-0.9142,-0.9122,-0.9113,-0.9116,-0.9083,-0.9092,-0.9091,-0.909,-0.9077,-0.9075,-0.9072,-0.9104,-0.9104,-0.9104,0,0,-0.9234,-0.9228,-0.9214,-0.9207,-0.9195,-0.919,-0.9187,-0.9175,-0.9171,-0.9153,-0.9151,-0.9139,-0.9116,-0.9106,-0.9098,-0.9078,-0.9076,-0.9073,-0.9064,-0.9052,-0.905,-0.9048,-0.904,-0.9037,-0.9071,-0.9071,-0.9071,0,-0.9228,-0.921,-0.9207,-0.9194,-0.9187,-0.9186,-0.9172,-0.9164,-0.9149,-0.9143,-0.9146,-0.9117,-0.9108,-0.9085,-0.908,-0.9074,-0.9069,-0.9074,-0.9051,-0.9049,-0.9047,-0.9039,-0.9036,-0.9071,-0.9071,-0.9071,-0.9071,0,-0.9203,-0.919,-0.9181,-0.9167,-0.9159,-0.9145,-0.9139,-0.913,-0.9128,-0.9123,-0.9104,-0.9093,-0.9077,-0.9072,-0.9069,-0.9049,-0.9051,-0.9053,-0.9058,-0.9044,-0.9036,-0.9033,-0.9071,-0.9071,-0.9071,-0.9071,0,0,-0.9182,-0.9167,-0.9164,-0.9157,-0.9144,-0.9134,-0.912,-0.9106,-0.9098,-0.9088,-0.9075,-0.9055,-0.9057,-0.9048,-0.9044,-0.9034,-0.9017,-0.9037,-0.9037,-0.9033,-0.8992,-0.899,-0.8986,-0.9017,-0.9016,-0.9016,-0.8993,0,-0.9162,-0.9139,-0.9136,-0.9114,-0.9102,-0.9102,-0.909,-0.908,-0.9074,-0.9062,-0.9055,-0.9041,-0.9046,-0.904,-0.903,-0.9022,-0.9009,-0.9023,-0.9003,-0.9002,-0.9005,-0.8983,-0.898,-0.8959,-0.899,-0.899,-0.8989,0,-0.9137,-0.9126,-0.9104,-0.9093,-0.9088,-0.9077,-0.9063,-0.9053,-0.9041,-0.9037,-0.9028,-0.9025,-0.9009,-0.9017,-0.8994,-0.9004,-0.8995,-0.899,-0.8989,-0.8986,-0.8994,-0.8977,-0.8952,-0.8949,-0.8985,-0.8985,-0.8985,0,-0.9122,-0.9103,-0.9087,-0.9081,-0.9068,-0.906,-0.9054,-0.9044,-0.9035,-0.9023,-0.9017,-0.9003,-0.8995,-0.8983,-0.8977,-0.8983,-0.8954,-0.8961,-0.8949,-0.8949,-0.8942,-0.8942,-0.8914,-0.8939,-0.8939,-0.8939,-0.8939,0,-0.91,-0.9086,-0.908,-0.907,-0.9054,-0.905,-0.9034,-0.9028,-0.9019,-0.9006,-0.9005,-0.8993,-0.8986,-0.8973,-0.8968,-0.8949,-0.8945,-0.8941,-0.8939,-0.894,-0.8941,-0.8934,-0.8934,-0.8938,-0.8938,-0.8938,-0.8938,0,-0.9081,-0.9077,-0.9059,-0.9049,-0.9046,-0.9034,-0.9024,-0.9014,-0.9009,-0.8993,-0.8989,-0.898,-0.8965,-0.8958,-0.8938,-0.8934,-0.8912,-0.8913,-0.8917,-0.8916,-0.8904,-0.8905,-0.8869,-0.8863,-0.8893,-0.8893,-0.8893,0,-0.9067,-0.9056,-0.9045,-0.9037,-0.9031,-0.9019,-0.9011,-0.9007,-0.8998,-0.8984,-0.8975,-0.896,-0.8947,-0.8922,-0.8913,-0.8897,-0.8896,-0.8885,-0.8894,-0.8895,-0.8895,-0.8895,-0.8893,-0.8883,-0.8883,-0.8882,-0.8882,0,-0.9042,-0.904,-0.9029,-0.9017,-0.9007,-0.8997,-0.8987,-0.8981,-0.8975,-0.8965,-0.895,-0.894,-0.8921,-0.8905,-0.8889,-0.8881,-0.888,-0.888,-0.8876,-0.8876,-0.8878,-0.8876,-0.8911,-0.888,-0.888,-0.888,-0.8881,-0.8881,-0.9023,-0.9014,-0.9004,-0.8992,-0.8984,-0.8975,-0.8965,-0.8959,-0.8946,-0.8931,-0.8929,-0.8912,-0.89,-0.8879,-0.8871,-0.8857,-0.8859,-0.8854,-0.8853,-0.8851,-0.885,-0.8882,-0.8854,-0.8854,-0.8854,-0.8854,-0.8854,0,-0.8997,-0.8991,-0.898,-0.8967,-0.8956,-0.8958,-0.8947,-0.8938,-0.8924,-0.8914,-0.8902,-0.8884,-0.8869,-0.8859,-0.8843,-0.8833,-0.8832,-0.8829,-0.8829,-0.8827,-0.8849,-0.8853,-0.883,-0.883,-0.883,-0.883,-0.883,-0.883,-0.8982,-0.8966,-0.8963,-0.8942,-0.8936,-0.8921,-0.8914,-0.8905,-0.8897,-0.8877,-0.8865,-0.886,-0.8849,-0.8832,-0.8818,-0.8815,-0.8809,-0.8805,-0.8803,-0.8823,-0.8826,-0.8828,-0.8832,-0.8804,-0.8804,-0.8781,-0.8781,-0.8781]}]]